CDT,Max TemperatureF,Mean TemperatureF,Min TemperatureF,Max Dew PointF,MeanDew PointF,Min DewpointF,Max Humidity, Mean Humidity, Min Humidity, Max Sea Level PressureIn, Mean Sea Level PressureIn, Min Sea Level PressureIn, Max VisibilityMiles, Mean VisibilityMiles, Min VisibilityMiles, Max Wind SpeedMPH, Mean Wind SpeedMPH, Max Gust SpeedMPH,PrecipitationIn, CloudCover, Events, WindDirDegrees
2012-10-1,63,60,57,59,57,55,100,92,84,29.74,29.64,29.57,10,6,2,20,11,25,0.86,8,Rain,11
2012-10-2,72,60,48,55,52,47,93,67,41,29.96,29.83,29.71,10,10,10,14,6,20,0.00,4,,296
2012-10-3,77,61,45,57,52,44,100,73,46,30.15,30.06,29.97,10,10,7,14,4,18,0.00,1,,194
2012-10-4,81,67,53,63,58,52,100,73,45,30.26,30.20,30.15,10,9,3,12,4,14,0.00,1,Rain,193
2012-10-5,81,64,46,64,58,47,97,74,51,30.18,30.08,29.95,10,8,2,25,8,30,0.77,3,Rain-Thunderstorm,232
2012-10-6,61,53,45,45,42,38,93,72,51,30.21,30.16,30.10,10,9,2,15,11,17,0.78,5,Rain-Thunderstorm,11
2012-10-7,58,51,43,38,36,34,54,47,40,30.26,30.20,30.16,10,10,10,9,6,,0.00,1,Rain,340
2012-10-8,61,52,39,44,40,37,96,69,42,30.25,30.19,30.13,10,10,10,8,2,,0.00,3,,186
2012-10-9,66,52,37,51,43,36,100,73,45,30.17,30.09,30.00,10,10,8,12,3,17,T,1,,194
2012-10-10,66,53,40,54,45,34,93,62,31,30.26,30.16,30.04,10,10,10,18,6,24,0.00,4,,302
2012-10-11,58,48,38,55,46,37,100,80,59,30.31,30.25,30.20,10,10,10,7,1,9,0.06,7,,92
2012-10-12,65,61,56,63,60,54,100,92,84,30.29,30.24,30.16,10,5,1,14,4,17,0.20,7,Rain,73
2012-10-13,82,72,62,66,63,61,100,76,51,30.23,30.16,30.03,10,6,0,20,8,25,0.00,4,Fog,154
2012-10-14,76,66,56,66,63,55,100,84,68,30.00,29.95,29.88,10,9,1,26,11,38,0.26,4,Rain,210
2012-10-15,74,60,46,54,49,44,100,68,35,30.06,30.00,29.96,10,10,7,13,3,16,0.00,0,,299
2012-10-16,77,61,45,54,51,45,100,73,46,29.99,29.90,29.82,10,10,10,15,6,22,0.00,0,,205
2012-10-17,78,68,57,63,55,50,93,66,39,29.82,29.67,29.51,10,8,2,24,12,32,1.51,5,Rain-Thunderstorm,195
2012-10-18,70,58,45,57,47,34,100,63,26,29.81,29.75,29.68,10,10,10,28,9,36,0.00,1,,237
2012-10-19,65,55,44,41,39,36,82,58,34,29.87,29.77,29.71,10,10,10,22,8,29,0.00,6,,247
2012-10-20,69,54,38,47,43,38,96,68,39,29.99,29.93,29.87,10,10,10,10,3,15,0.00,0,,239
2012-10-21,80,62,43,52,48,42,93,64,35,30.07,30.03,29.97,10,10,10,15,6,18,0.00,1,,177
2012-10-22,82,69,56,54,52,49,80,57,33,30.15,30.08,30.04,10,10,10,18,9,24,0.00,0,,192
2012-10-23,81,67,53,59,53,50,89,64,39,30.10,30.05,30.00,10,10,10,17,7,24,0.00,0,,178
2012-10-24,81,71,61,63,57,52,84,65,45,30.11,30.05,30.00,10,10,10,14,6,26,0.00,1,,189
2012-10-25,82,71,59,61,57,55,87,74,60,30.03,29.98,29.94,10,10,10,14,7,,0.00,1,,175
2012-10-26,64,54,43,49,43,39,93,85,77,30.20,30.14,29.99,10,8,2,16,13,24,0.37,8,Rain,9
2012-10-27,57,48,39,40,40,40,83,83,83,30.17,30.13,30.06,10,10,10,16,10,,0.00,0,,338
2012-10-28,57,47,37,37,34,33,70,55,40,30.19,30.14,30.10,10,10,10,17,11,24,0.00,0,,348
2012-10-29,57,46,35,34,29,23,89,58,27,30.24,30.15,30.06,10,10,10,23,11,29,0.00,0,,341
2012-10-30,58,48,38,32,28,25,70,49,28,30.04,29.96,29.89,10,10,10,23,10,30,0.00,0,,296
2012-10-31,61,46,31,33,29,23,92,58,23,29.99,29.96,29.93,10,10,9,15,5,21,0.00,0,,273